Horseshoe Bay, TX

9:27 AM MDT on April 27, 2017 (GMT -0600)
Horseshoe Bay

Weather History for KDZB - April, 2014

Change the Weather History Date:

Friday, April 4, 2014

  Actual Average (KBMQ) Record (KBMQ)
Temperature  
Mean Temperature 60 °F -  
Max Temperature 70 °F 72 °F 87 °F (2017)
Min Temperature 49 °F 51 °F 44 °F (2013)
Degree Days  
Heating Degree Days 5    
Growing Degree Days 10 (Base 50)    
Moisture  
Dew Point 30 °F    
Average Humidity 33    
Maximum Humidity 65    
Minimum Humidity 18    
Precipitation  
Precipitation 0.10 in - - ()
Sea Level Pressure  
Sea Level Pressure 30.07 in    
Wind  
Wind Speed 8 mph (NNE)    
Max Wind Speed 16 mph    
Max Gust Speed 24 mph    
Visibility 10 miles    
Events Rain , Thunderstorm    
Averages and records for this station are not official NWS values.
T = Trace of Precipitation, MM = Missing Value Source: NWS Daily Summary

Daily Weather History Graph

Daily Weather History Graph

Search for Another Location

Airport or City:

Trip Planner

Search our weather history database for the weather conditions in past years. The results will help you decide how hot, cold, wet, or windy it might be!

Date:

Astronomy

Apr. 04, 2014 Rise Set
Actual Time 6:18 AM MDT 6:54 PM MDT
Civil Twilight 5:54 AM MDT 7:18 PM MDT
Nautical Twilight 5:26 AM MDT 7:47 PM MDT
Astronomical Twilight 4:57 AM MDT 8:16 PM MDT
Moon 9:51 AM MDT (4/4) 11:51 PM MDT (4/4)
Length of Visible Light 13h 24m
Length of Day
12h 35m
Waxing Crescent, 26% of the Moon is Illuminated
Apr 4
Waxing Crescent
Apr 7
First Quarter
Apr 15
Full
Apr 22
Last Quarter
Apr 29
New

Hourly Weather History & Observations

Time (MDT) Temp. Dew Point Humidity Pressure Visibility Wind Dir Wind Speed Gust Speed Precip Events Conditions
12:15 AM 68.9 °F 37.6 °F 32% 29.87 in 10.0 mi NNW 5.8 mph - N/A Thunderstorm Thunderstorm
12:35 AM 70.3 °F 29.3 °F 22% 29.90 in 7.0 mi NW 5.8 mph - N/A Thunderstorm Thunderstorm
12:55 AM 69.8 °F 28.0 °F 21% 29.89 in 10.0 mi NNW 11.5 mph 17.3 mph N/A   Mostly Cloudy
1:15 AM 69.8 °F 26.1 °F 19% 29.95 in 10.0 mi NW 4.6 mph - N/A   Mostly Cloudy
1:35 AM 62.8 °F 37.4 °F 39% 29.94 in 10.0 mi North 4.6 mph - N/A Rain Light Rain
1:55 AM 66.6 °F 26.6 °F 22% 29.96 in 10.0 mi North 8.1 mph 16.1 mph N/A   Clear
2:15 AM 66.6 °F 28.8 °F 24% 29.98 in 10.0 mi North 13.8 mph 20.7 mph N/A   Clear
2:35 AM 65.1 °F 32.5 °F 30% 29.98 in 10.0 mi NNW 16.1 mph 20.7 mph N/A   Scattered Clouds
2:55 AM 63.0 °F 35.2 °F 36% 30.00 in 10.0 mi North 6.9 mph 17.3 mph N/A   Mostly Cloudy
3:15 AM 61.2 °F 38.3 °F 43% 30.00 in 10.0 mi NNW 11.5 mph - N/A Rain Light Rain
3:35 AM 60.3 °F 35.4 °F 39% 30.01 in 10.0 mi North 13.8 mph 21.9 mph N/A   Mostly Cloudy
3:55 AM 59.0 °F 34.9 °F 40% 30.00 in 10.0 mi North 10.4 mph 23.0 mph N/A   Scattered Clouds
4:15 AM 57.9 °F 34.0 °F 41% 30.01 in 10.0 mi North 15.0 mph 20.7 mph N/A   Clear
4:35 AM 57.0 °F 32.7 °F 40% 30.02 in 10.0 mi North 9.2 mph 21.9 mph N/A   Clear
4:55 AM 55.9 °F 33.1 °F 42% 30.03 in 10.0 mi North 10.4 mph 18.4 mph N/A   Clear
5:15 AM 54.9 °F 32.0 °F 42% 30.04 in 10.0 mi North 12.7 mph 24.2 mph N/A   Clear
5:35 AM 53.8 °F 32.0 °F 44% 30.06 in 10.0 mi North 13.8 mph 19.6 mph N/A   Clear
5:55 AM 52.7 °F 32.0 °F 45% 30.07 in 10.0 mi North 12.7 mph 16.1 mph N/A   Clear
6:15 AM 52.5 °F 32.0 °F 46% 30.08 in 10.0 mi North 9.2 mph 16.1 mph N/A   Clear
6:35 AM 51.8 °F 29.7 °F 43% 30.10 in 10.0 mi North 15.0 mph 23.0 mph N/A   Clear
6:55 AM 51.1 °F 29.5 °F 43% 30.11 in 10.0 mi North 9.2 mph 18.4 mph N/A   Clear
7:15 AM 51.3 °F 31.1 °F 46% 30.12 in 10.0 mi North 8.1 mph - N/A   Clear
7:35 AM 51.8 °F 30.4 °F 44% 30.13 in 10.0 mi NNE 12.7 mph 23.0 mph N/A   Clear
7:55 AM 51.8 °F 30.6 °F 44% 30.13 in 10.0 mi North 12.7 mph 23.0 mph N/A   Clear
8:15 AM 52.7 °F 30.7 °F 43% 30.14 in 10.0 mi North 11.5 mph 17.3 mph N/A   Clear
8:35 AM 54.0 °F 30.7 °F 41% 30.14 in 10.0 mi North 12.7 mph 19.6 mph N/A   Clear
8:55 AM 55.0 °F 29.7 °F 38% 30.14 in 10.0 mi North 16.1 mph 21.9 mph N/A   Clear
9:15 AM 56.7 °F 29.7 °F 36% 30.14 in 10.0 mi North 13.8 mph 18.4 mph N/A   Clear
9:35 AM 58.1 °F 29.8 °F 34% 30.15 in 10.0 mi North 10.4 mph 19.6 mph N/A   Clear
9:55 AM 59.2 °F 29.7 °F 33% 30.15 in 10.0 mi North 10.4 mph 17.3 mph N/A   Scattered Clouds
10:15 AM 60.6 °F 28.4 °F 29% 30.16 in 10.0 mi NNE 10.4 mph 19.6 mph N/A   Mostly Cloudy
10:35 AM 61.3 °F 29.1 °F 30% 30.16 in 10.0 mi North 8.1 mph 16.1 mph N/A   Scattered Clouds
10:55 AM 63.5 °F 29.1 °F 27% 30.15 in 10.0 mi NE 10.4 mph - N/A   Mostly Cloudy
11:15 AM 64.4 °F 29.3 °F 27% 30.15 in 10.0 mi NNE 9.2 mph 16.1 mph N/A   Scattered Clouds
11:35 AM 65.1 °F 29.1 °F 26% 30.15 in 10.0 mi North 10.4 mph 17.3 mph N/A   Scattered Clouds
11:55 AM 64.9 °F 28.2 °F 25% 30.15 in 10.0 mi NNE 8.1 mph 19.6 mph N/A   Scattered Clouds
12:15 PM 66.2 °F 26.6 °F 23% 30.14 in 10.0 mi NNE 11.5 mph 18.4 mph N/A   Clear
12:35 PM 66.9 °F 28.9 °F 24% 30.12 in 10.0 mi North 9.2 mph 16.1 mph N/A   Clear
12:55 PM 67.6 °F 28.6 °F 23% 30.12 in 10.0 mi NNE 12.7 mph 21.9 mph N/A   Clear
1:15 PM 67.8 °F 26.8 °F 21% 30.12 in 10.0 mi NNE 11.5 mph 19.6 mph N/A   Clear
1:35 PM 68.9 °F 27.3 °F 21% 30.11 in 10.0 mi North 8.1 mph - N/A   Clear
2:15 PM 69.6 °F 23.7 °F 18% 30.09 in 10.0 mi NNE 11.5 mph 16.1 mph N/A   Clear
2:55 PM 70.3 °F 25.0 °F 18% 30.06 in 10.0 mi ENE 8.1 mph - N/A   Scattered Clouds
3:15 PM 70.2 °F 26.1 °F 19% 30.06 in 10.0 mi NNE 9.2 mph - N/A   Scattered Clouds
3:35 PM 70.0 °F 25.5 °F 19% 30.05 in 10.0 mi NE 11.5 mph - N/A   Scattered Clouds
3:55 PM 70.9 °F 26.4 °F 19% 30.04 in 10.0 mi NE 8.1 mph - N/A   Scattered Clouds
4:15 PM 69.6 °F 24.4 °F 18% 30.04 in 10.0 mi ENE 6.9 mph - N/A   Mostly Cloudy
4:35 PM 69.3 °F 25.2 °F 19% 30.04 in 10.0 mi ENE 9.2 mph - N/A   Overcast
4:55 PM 69.3 °F 25.2 °F 19% 30.05 in 10.0 mi ENE 6.9 mph - N/A   Overcast
5:15 PM 68.4 °F 25.2 °F 20% 30.04 in 10.0 mi ENE 8.1 mph - N/A   Scattered Clouds
5:35 PM 67.8 °F 26.6 °F 21% 30.05 in 10.0 mi ENE 6.9 mph - N/A   Scattered Clouds
5:55 PM 66.6 °F 27.3 °F 23% 30.05 in 10.0 mi ENE 5.8 mph - N/A   Mostly Cloudy
6:15 PM 66.0 °F 27.5 °F 23% 30.04 in 10.0 mi East 4.6 mph - N/A   Scattered Clouds
6:35 PM 65.1 °F 27.3 °F 24% 30.05 in 10.0 mi East 4.6 mph - N/A   Scattered Clouds
6:55 PM 63.7 °F 28.2 °F 26% 30.06 in 10.0 mi East 3.5 mph - N/A   Scattered Clouds
7:15 PM 62.6 °F 28.4 °F 27% 30.06 in 10.0 mi East 3.5 mph - N/A   Scattered Clouds
7:35 PM 61.7 °F 29.1 °F 29% 30.06 in 10.0 mi East 3.5 mph - N/A   Clear
7:55 PM 61.3 °F 29.1 °F 30% 30.07 in 10.0 mi Calm Calm - N/A   Clear
8:15 PM 60.4 °F 29.8 °F 31% 30.07 in 10.0 mi Calm Calm - N/A   Clear
8:35 PM 59.5 °F 30.7 °F 34% 30.09 in 10.0 mi Calm Calm - N/A   Clear
8:55 PM 59.0 °F 31.3 °F 35% 30.09 in 10.0 mi Calm Calm - N/A   Clear
9:15 PM 58.1 °F 32.0 °F 37% 30.10 in 10.0 mi Calm Calm - N/A   Clear
9:35 PM 56.7 °F 32.5 °F 40% 30.10 in 10.0 mi Calm Calm - N/A   Clear
9:55 PM 56.7 °F 32.7 °F 40% 30.09 in 10.0 mi Calm Calm - N/A   Scattered Clouds
10:15 PM 55.6 °F 34.0 °F 44% 30.09 in 10.0 mi Calm Calm - N/A   Mostly Cloudy
10:35 PM 54.5 °F 35.4 °F 49% 30.09 in 10.0 mi Calm Calm - N/A   Overcast
10:55 PM 53.2 °F 35.6 °F 51% 30.08 in 10.0 mi Calm Calm - N/A   Scattered Clouds
11:15 PM 51.8 °F 35.6 °F 54% 30.07 in 10.0 mi Calm Calm - N/A   Clear
11:35 PM 50.4 °F 37.2 °F 61% 30.07 in 10.0 mi Calm Calm - N/A   Clear
11:55 PM 49.3 °F 37.8 °F 65% 30.07 in 10.0 mi Calm Calm - N/A   Clear